GEFSMA_con_cape1000_198.txt.gz
Probability
13 13 10 10 10 10 10 10 10 10 10 6 6 6 3 3 3 6 6 10 29 35 39 42 32 35 29 39 39 42 45 45 45 45 42 45 45 52 48 52 52 55 52
13 10 3 3 6 10 13 10 6 6 3 3 3 3 3 0 0 6 10 6 13 23 29 32 26 23 23 29 32 42 39 45 52 52 48 45 39 39 32 35 39 42 42
10 10 6 6 6 6 6 3 3 3 3 3 3 3 3 0 0 3 3 3 6 13 19 23 23 26 19 19 26 32 32 42 42 42 39 42 32 32 23 19 19 23 26
6 6 6 6 6 6 3 3 3 3 3 3 3 3 3 3 3 3 3 0 0 0 10 19 19 16 16 13 16 19 19 26 32 26 29 29 26 26 23 13 10 6 16
10 6 6 3 3 3 3 3 3 3 3 3 3 3 3 0 3 3 0 0 0 0 0 6 13 10 10 13 13 13 13 16 23 23 19 23 26 16 10 10 3 3 10
13 6 3 0 3 3 6 3 3 3 3 0 0 0 0 0 0 0 0 0 0 0 0 0 3 6 6 6 10 13 13 13 10 6 13 16 19 10 10 6 3 6 3
10 10 10 3 3 3 3 3 0 0 0 0 0 0 0 0 0 0 0 0 0 0 0 0 3 3 6 3 6 6 6 6 6 6 3 13 16 6 6 6 3 3 3
13 10 6 10 0 0 0 0 0 0 0 0 0 0 0 0 0 0 0 0 0 0 0 0 0 0 6 6 6 6 3 3 6 6 3 6 6 6 6 3 3 3 3
13 13 10 6 3 3 0 0 0 0 0 0 0 0 0 0 0 0 0 0 0 0 0 0 0 0 0 0 6 3 3 3 3 6 6 6 6 10 3 3 3 3 3
10 13 13 6 3 3 3 3 3 0 0 0 0 0 0 0 0 0 0 0 0 0 0 0 0 0 0 0 0 0 0 0 3 3 3 6 6 6 6 3 3 3 3
6 13 13 13 3 0 0 3 3 0 0 0 0 0 0 0 0 0 0 0 0 0 0 0 0 0 0 0 0 0 0 0 0 0 3 3 6 6 3 3 3 3 3
6 6 10 10 6 6 3 3 3 0 0 0 0 0 0 0 0 0 0 0 0 0 0 0 0 0 0 0 0 0 0 0 0 0 0 0 0 0 6 0 0 0 0
0 3 3 6 10 6 3 3 0 0 0 0 0 0 0 0 0 0 0 0 0 0 0 0 0 0 0 0 0 0 0 0 0 0 0 0 0 0 0 0 0 0 0
0 0 0 0 0 3 6 3 0 0 0 0 0 0 0 0 0 0 0 0 0 0 0 0 0 0 0 0 0 0 0 0 0 0 0 0 0 0 0 0 0 0 0
0 0 0 0 0 0 0 3 0 0 0 0 0 0 0 0 0 0 0 0 0 0 0 0 0 0 0 0 0 0 0 0 0 0 0 0 0 0 0 0 0 0 0
3 3 0 0 0 0 0 0 0 0 0 0 0 0 0 0 0 0 0 0 0 0 0 0 0 0 0 0 0 0 0 0 0 0 0 0 0 0 0 0 0 0 0
3 3 3 3 0 0 0 0 0 0 0 0 0 0 0 0 0 0 0 0 0 0 0 0 0 0 0 0 0 0 0 0 0 0 0 0 0 0 0 0 0 0 0
3 3 3 3 0 0 0 0 0 0 0 0 0 0 0 0 0 0 0 0 0 0 0 0 0 0 0 0 0 0 0 0 0 0 0 0 0 0 0 0 0 0 0
3 3 3 3 0 0 0 0 0 0 0 0 0 0 0 0 0 0 0 0 0 0 0 0 0 0 0 0 0 0 0 0 0 0 0 0 0 0 0 0 0 0 0
0 0 0 0 0 0 0 0 0 0 0 0 0 0 0 0 0 0 0 0 0 0 0 0 0 0 0 0 0 0 0 0 0 0 0 0 0 0 0 0 0 0 0
0 0 0 0 0 0 0 0 0 0 0 0 0 0 0 0 0 0 0 0 0 0 0 0 0 0 0 0 0 0 0 0 0 0 0 0 0 0 0 0 0 0 0
0 0 0 0 0 0 0 0 0 0 0 0 0 0 0 0 0 0 0 0 0 0 0 0 0 0 0 0 0 0 0 0 0 0 0 0 0 0 0 0 0 0 0
0 0 0 0 0 0 0 0 0 0 0 0 0 0 0 0 0 0 0 0 0 0 0 0 0 0 0 0 0 0 0 0 0 0 0 0 0 0 0 0 0 0 0
0 0 0 0 0 0 0 0 0 0 0 0 0 0 0 0 0 0 0 0 0 0 0 0 0 0 0 0 0 0 0 0 0 0 0 0 0 0 0 0 0 0 0
0 0 0 0 0 0 0 0 0 0 0 0 0 0 0 0 0 0 0 0 0 0 0 0 0 0 0 0 0 0 0 0 0 0 0 0 0 0 0 0 0 0 0
0 0 0 0 0 0 0 0 0 0 0 0 0 0 0 0 0 0 0 0 0 0 0 0 0 0 0 0 0 0 0 0 0 0 0 0 0 0 0 0 0 0 0

GEFSMA_con_cape1000_204.txt.gz
Probability
48 45 45 45 42 32 32 29 23 10 16 10 6 6 10 16 13 16 19 23 29 26 23 23 32 39 32 32 35 39 42 48 45 45 42 42 42 39 35 39 39 42 42
48 48 48 35 29 32 26 19 16 19 16 16 10 10 13 13 13 13 19 19 23 23 23 23 23 26 23 26 29 29 32 35 42 45 42 45 42 39 32 29 26 26 23
52 45 39 35 35 29 26 23 23 23 23 23 16 16 16 13 16 16 19 16 13 13 19 19 19 23 19 26 23 26 32 29 29 26 35 39 35 32 26 19 23 19 19
45 48 39 32 32 29 29 26 26 19 23 19 19 19 16 23 13 16 16 6 10 10 10 19 16 19 23 23 19 16 19 23 23 19 23 23 26 23 23 16 19 13 13
45 42 35 32 29 23 23 23 23 19 19 19 16 13 13 13 10 10 13 6 6 10 13 13 13 16 16 13 16 16 13 16 16 16 16 19 19 13 13 6 3 6 13
39 35 32 23 23 26 26 23 23 19 19 19 13 13 13 13 10 13 10 10 10 6 3 3 13 6 6 6 10 16 16 16 13 13 13 13 16 16 10 6 0 0 3
29 32 19 29 26 23 23 19 23 23 19 16 16 13 16 13 10 13 6 6 6 3 3 3 10 6 3 3 3 6 6 10 16 10 10 13 16 10 6 3 3 0 0
29 19 29 26 26 26 26 19 19 23 19 16 16 13 6 6 10 3 6 3 3 6 3 3 3 6 6 3 3 6 6 6 3 10 10 10 10 6 6 3 0 0 0
23 23 23 23 26 23 19 23 19 16 16 16 19 13 6 3 3 3 3 3 3 3 0 0 3 3 3 3 3 6 6 3 3 3 6 6 6 6 6 6 3 0 0
23 23 23 23 23 19 19 19 13 16 19 19 19 19 19 13 3 3 6 0 3 3 0 0 0 6 6 6 3 0 0 0 0 0 3 3 3 3 3 3 0 0 0
26 23 19 16 16 19 19 19 19 23 19 16 16 16 16 16 16 10 3 3 6 6 6 6 6 3 3 10 13 0 0 0 0 0 0 0 3 3 3 3 3 0 0
6 10 10 13 13 16 16 19 19 19 19 19 19 19 19 13 10 6 10 10 3 3 3 6 6 3 6 10 0 0 0 0 0 0 0 0 0 3 3 3 3 3 3
6 6 10 10 10 10 10 13 16 13 16 13 13 13 13 13 10 10 6 6 3 6 6 6 6 6 3 10 13 0 0 0 0 0 0 0 0 0 0 3 3 6 0
6 10 10 10 10 10 6 6 6 10 13 13 13 13 16 13 10 6 6 6 3 3 3 3 6 3 3 10 6 0 0 0 0 0 0 0 0 0 0 0 0 0 0
10 13 13 10 13 6 6 6 6 10 10 10 13 13 13 10 10 6 6 6 3 3 3 3 10 3 3 6 0 0 0 0 0 0 0 0 0 0 0 0 0 0 0
13 10 13 10 10 6 6 10 10 10 10 10 10 13 13 10 10 10 6 6 3 3 3 3 10 13 3 0 0 0 3 0 0 0 0 0 0 0 0 0 0 0 0
13 10 6 6 6 6 10 10 10 10 10 10 10 10 6 6 10 10 6 6 3 3 3 3 6 3 0 0 0 0 0 0 0 0 0 0 0 0 0 0 0 0 0
13 10 6 6 6 6 6 6 6 6 10 10 10 6 6 6 10 13 13 10 6 10 3 0 6 3 0 0 0 0 0 0 0 0 0 0 0 0 0 0 0 0 0
6 6 6 6 6 6 6 6 6 6 10 13 10 6 6 6 6 10 10 6 10 0 3 3 6 6 6 0 0 0 0 3 0 0 0 0 0 0 0 0 0 0 0
3 3 6 6 6 6 6 6 6 6 6 10 10 6 6 6 10 6 6 6 0 3 6 6 0 0 3 3 0 0 0 6 3 0 0 0 0 0 0 0 0 0 0
3 3 3 3 6 6 3 3 3 6 6 6 3 3 3 3 3 3 3 3 3 3 6 6 0 0 0 0 0 0 0 0 6 0 3 0 0 0 0 0 0 0 0
3 3 3 3 3 3 0 0 3 0 6 6 3 3 3 3 0 0 0 0 0 0 0 3 0 0 0 0 0 0 0 0 0 0 0 0 0 0 3 0 0 0 0
3 3 3 3 3 3 0 0 0 0 3 6 6 6 3 3 3 0 0 0 0 0 0 0 0 0 0 0 0 0 0 0 0 0 0 0 0 0 0 0 0 0 0
6 6 3 3 3 0 0 0 0 0 3 6 6 6 6 3 0 0 0 0 0 0 0 0 0 0 0 0 0 0 0 0 0 0 0 0 0 0 0 3 0 0 0
10 6 3 3 3 0 0 0 0 0 0 3 6 3 3 0 0 0 0 0 0 0 0 0 0 0 0 0 0 0 0 0 0 0 3 0 0 3 3 6 0 0 0
10 3 3 3 3 0 0 0 0 0 0 0 6 0 0 0 0 0 0 0 0 0 0 0 0 0 0 0 0 0 0 0 0 0 0 0 0 0 0 3 6 0 0

GEFSMA_con_cape1000_210.txt.gz
Probability
58 58 58 52 48 45 42 42 32 26 16 16 13 10 13 10 10 13 16 23 23 23 23 23 32 29 35 39 39 42 42 39 42 45 39 45 45 39 48 42 48 52 45
58 58 52 48 48 42 39 35 32 26 23 19 19 13 16 10 10 13 13 19 19 23 23 29 23 26 26 35 35 39 39 39 35 42 32 32 32 29 35 39 32 39 29
55 48 45 48 48 48 29 29 29 26 19 16 16 16 16 16 13 13 13 19 19 19 29 29 29 26 23 23 29 26 29 32 32 32 35 32 26 23 19 19 23 19 10
52 48 52 48 45 35 32 26 29 23 19 23 16 16 19 19 19 23 19 19 13 10 23 26 29 26 26 19 19 23 23 26 26 26 29 29 29 23 19 19 16 16 10
48 48 48 42 39 32 29 26 26 26 23 23 23 16 19 13 10 10 16 16 13 16 13 19 26 26 23 23 19 16 23 19 26 23 23 23 26 16 13 10 10 0 0
48 48 42 42 39 35 32 29 23 23 23 23 10 10 13 13 13 10 13 10 13 10 6 10 19 16 19 16 13 13 16 16 19 23 16 16 19 10 6 6 6 3 3
48 48 39 42 39 32 32 29 23 23 26 19 13 13 13 13 13 19 16 16 16 10 10 10 10 6 3 13 10 16 16 16 13 16 19 16 13 10 13 6 6 3 3
45 35 39 39 35 35 35 29 26 23 23 16 16 10 10 10 13 13 16 13 10 6 6 3 6 10 6 6 0 10 13 13 13 6 10 10 6 10 10 10 6 6 0
35 42 39 42 39 39 35 32 26 23 19 19 16 13 10 10 10 10 10 3 6 6 6 3 6 6 6 6 6 3 13 10 13 6 6 6 6 6 6 6 6 6 0
35 32 32 29 32 26 32 29 23 23 23 16 19 16 13 6 10 3 6 10 10 6 6 3 3 3 6 6 3 3 6 6 6 6 6 6 6 6 6 6 6 6 3
32 29 29 29 32 29 32 23 23 16 16 13 13 13 13 13 10 6 3 6 6 13 10 6 6 6 6 10 10 3 3 3 3 3 3 6 6 6 6 6 6 6 3
29 29 26 29 26 26 23 19 13 10 6 6 10 6 10 10 6 3 0 0 3 6 6 10 6 6 6 6 6 0 0 0 0 0 0 0 3 6 6 6 6 6 3
26 26 19 26 16 13 16 10 10 10 6 6 6 6 3 3 3 6 3 3 3 3 6 10 6 6 6 6 6 0 0 0 0 0 0 0 0 0 3 3 6 6 6
19 19 16 13 13 13 10 10 10 10 6 10 6 6 6 6 6 6 0 0 0 0 3 3 6 6 6 10 6 0 0 0 0 0 0 0 0 0 0 0 0 0 0
16 13 10 13 10 10 10 10 10 6 6 6 6 6 6 10 6 6 6 10 3 0 0 0 6 6 6 10 0 0 6 0 0 0 0 0 0 0 0 0 0 0 0
13 13 13 13 13 10 10 6 6 6 6 6 6 6 10 6 6 6 6 6 6 3 0 0 10 6 6 0 0 3 6 0 0 0 0 0 0 0 0 0 0 0 0
13 13 13 13 10 13 10 6 6 6 6 10 10 6 6 10 10 10 6 3 3 3 3 0 3 10 6 0 3 3 6 0 0 0 0 0 0 0 0 0 0 0 0
13 13 13 13 10 10 10 10 10 10 10 6 6 6 6 6 10 6 3 3 3 3 3 0 0 3 3 6 3 3 3 0 0 0 0 0 0 0 0 0 0 0 0
10 10 10 13 10 10 6 6 6 6 6 6 3 3 10 6 6 3 3 3 3 3 0 0 0 0 3 0 0 0 0 0 0 0 0 0 0 0 0 0 0 0 0
10 10 10 6 6 6 3 3 3 3 3 3 3 3 3 6 3 3 3 3 3 0 0 0 0 0 0 0 0 0 0 0 0 0 0 0 0 0 0 0 0 0 0
10 10 10 6 6 6 6 6 3 3 3 3 3 3 3 3 3 3 3 6 3 0 0 0 0 0 0 0 0 0 0 0 0 0 0 0 0 0 0 0 0 0 0
10 10 6 6 6 6 3 3 3 3 3 3 3 3 0 0 0 0 0 0 0 0 0 0 0 0 0 0 0 0 0 0 0 0 0 0 0 0 0 0 0 0 0
10 16 10 6 10 6 0 3 3 3 3 3 3 0 0 0 0 3 0 0 0 0 0 0 0 0 0 0 0 0 0 0 0 0 0 0 0 0 0 0 0 0 0
10 13 10 10 10 3 0 0 0 3 3 3 0 0 0 0 0 0 0 0 0 0 0 0 0 0 0 0 0 0 0 0 0 0 0 0 0 0 0 0 0 0 0
13 13 10 10 6 0 0 0 0 3 3 0 0 0 3 3 0 0 0 0 0 0 0 0 0 0 0 0 0 0 0 0 0 0 0 0 0 0 0 0 0 0 0
13 13 10 6 6 3 0 0 0 3 0 0 0 0 0 0 0 0 0 0 0 0 0 0 0 0 0 0 0 0 0 0 0 0 0 0 0 0 0 0 0 0 0

GEFSMA_con_cape1000_216.txt.gz
Probability
19 23 19 13 13 10 13 10 10 10 10 10 3 3 3 3 0 3 0 19 35 35 35 35 32 26 32 32 32 39 35 42 45 42 45 45 48 39 35 35 35 35 42
19 19 16 6 6 6 13 10 10 6 3 3 3 3 3 3 3 3 0 3 26 29 26 32 26 23 26 26 29 32 32 35 42 35 35 39 42 39 35 32 35 32 32
13 16 16 13 6 10 10 10 10 3 3 3 3 3 3 3 3 3 3 3 6 16 26 26 26 26 26 26 29 26 29 35 35 29 29 32 39 32 29 26 29 29 23
16 16 16 13 6 6 10 6 3 3 3 3 3 3 3 3 3 3 3 3 3 3 6 26 29 29 23 23 23 23 26 32 29 29 29 23 19 19 16 10 16 16 13
16 13 6 6 3 3 3 3 3 3 3 3 3 3 3 3 3 3 3 3 3 3 3 3 19 23 26 23 23 23 23 26 26 26 23 23 23 26 13 10 10 10 6
19 10 6 6 3 3 3 3 3 3 3 3 3 3 3 3 3 3 3 3 3 3 3 3 3 10 16 26 26 23 16 23 26 19 19 23 23 16 13 10 6 6 6
23 13 10 6 3 3 3 3 3 3 3 3 3 3 0 3 3 3 3 3 3 3 3 3 3 3 6 16 16 23 16 16 16 16 16 23 26 19 16 10 10 6 6
23 19 13 6 6 3 3 3 3 3 3 3 3 3 3 3 3 3 3 3 3 3 3 3 3 3 0 0 3 16 16 16 16 16 19 19 16 16 13 13 10 10 10
19 19 13 6 6 3 3 3 3 3 3 3 3 3 3 3 0 0 0 3 3 3 3 3 0 0 0 0 0 0 16 19 19 16 19 16 19 13 10 6 6 6 6
16 13 10 3 3 3 3 3 3 3 3 3 3 3 0 0 0 0 0 0 0 0 0 0 0 0 0 0 0 0 0 3 13 13 16 16 13 10 10 6 6 6 6
16 13 10 3 3 3 3 3 3 3 3 3 3 3 3 0 0 0 0 0 0 0 0 0 0 0 0 0 0 0 0 0 0 3 6 10 6 10 10 10 10 10 6
16 13 13 10 3 3 3 3 3 3 3 3 0 0 3 3 0 0 0 0 0 0 0 0 0 0 0 0 0 0 0 0 0 0 0 3 6 6 10 10 10 10 6
16 13 13 10 6 3 3 3 0 3 3 3 0 0 0 0 0 0 0 0 0 0 0 0 0 0 0 0 0 0 0 0 0 0 0 0 0 3 3 3 6 6 6
6 13 13 10 10 6 6 3 3 0 0 0 0 0 0 0 0 0 0 0 0 0 0 0 0 0 0 0 0 0 0 0 0 0 0 0 0 0 0 0 3 0 0
3 3 6 3 6 6 6 6 3 3 3 0 0 0 0 0 0 0 0 0 0 0 0 0 0 0 0 0 0 0 0 0 0 0 0 0 0 0 0 0 0 0 0
6 6 6 6 6 6 6 6 3 3 3 3 0 0 0 3 0 0 0 0 0 0 0 0 0 0 0 0 0 0 0 0 0 0 0 0 0 0 0 0 0 0 0
6 6 6 6 6 6 6 6 6 6 3 3 3 0 0 0 0 0 0 0 0 0 0 0 0 0 0 0 0 0 0 0 0 0 0 0 0 0 0 0 0 0 0
3 3 6 10 10 6 6 6 6 6 6 3 3 3 3 0 0 0 0 0 0 0 0 0 0 0 0 0 0 0 0 0 0 0 0 0 0 0 0 0 0 0 0
3 3 6 6 6 3 3 3 3 3 3 3 3 3 3 0 0 0 0 0 0 0 0 0 0 0 0 0 0 0 0 0 0 0 0 0 0 0 0 0 0 0 0
3 3 6 6 6 3 3 3 3 3 3 3 3 3 3 0 0 0 0 0 0 0 0 0 0 0 0 0 0 0 0 0 0 0 0 0 0 0 0 0 0 0 0
6 6 6 6 6 3 3 3 3 3 3 3 3 3 3 3 0 0 0 0 0 0 0 0 0 0 0 0 0 0 0 0 0 0 0 0 0 0 0 0 0 0 0
6 3 3 3 3 3 3 3 3 3 3 3 3 3 0 0 0 0 0 0 0 0 0 0 0 0 0 0 0 0 0 0 0 0 0 0 0 0 0 0 0 0 0
3 3 3 3 3 3 3 3 3 3 3 3 3 0 0 0 0 0 0 0 0 0 0 0 0 0 0 0 0 0 0 0 0 0 0 0 0 0 0 0 0 0 0
3 3 3 3 3 3 0 0 0 3 3 3 3 0 0 0 0 0 0 0 0 0 0 0 0 0 0 0 0 0 0 0 0 0 0 0 0 0 0 0 0 0 0
3 3 3 3 3 3 0 0 0 3 3 3 0 0 0 0 0 0 0 0 0 0 0 0 0 0 0 0 0 0 0 0 0 0 0 0 0 0 0 0 0 0 0
3 3 3 3 3 3 0 0 0 3 3 0 0 0 0 0 0 0 0 0 0 0 0 0 0 0 0 0 0 0 0 0 0 0 0 0 0 0 0 0 0 0 0

GEFSMA_con_cape1000_222.txt.gz
Probability
29 23 23 23 19 19 19 16 16 13 13 13 13 10 10 10 0 0 0 6 19 26 29 32 32 39 39 39 42 39 32 42 45 45 45 32 26 42 42 35 35 39 45
10 10 16 10 16 16 13 13 13 13 13 13 13 13 10 6 0 0 0 3 19 19 26 29 29 26 26 32 32 35 35 35 42 42 42 32 26 29 29 26 29 32 35
10 13 10 6 6 6 3 10 10 13 10 10 10 3 3 3 3 0 0 0 6 10 19 23 26 26 26 23 29 32 32 35 35 39 32 29 29 23 23 23 26 19 23
10 10 13 10 6 6 3 3 10 10 6 6 3 3 3 3 3 3 3 3 6 6 6 16 23 23 23 23 23 26 26 26 26 26 29 26 23 23 19 23 26 23 19
10 10 10 6 6 3 3 3 10 3 3 3 3 0 0 0 3 3 3 3 6 3 3 6 10 16 19 26 23 19 23 19 23 23 23 23 23 19 19 16 16 16 16
10 6 6 3 0 3 3 3 3 3 3 3 3 3 0 0 0 0 3 3 3 0 0 0 3 3 13 19 16 16 13 19 19 16 19 19 23 16 13 13 13 13 13
13 6 6 3 6 3 3 3 3 3 3 0 3 3 0 0 0 0 0 0 0 0 0 0 3 3 3 10 13 16 16 16 16 16 16 16 19 10 6 6 0 6 10
3 6 3 3 6 6 3 3 0 0 0 0 0 3 3 0 0 0 0 0 0 0 3 3 3 3 3 3 3 13 16 16 16 16 16 16 23 19 13 6 6 3 6
3 3 3 3 3 6 6 3 3 0 0 0 0 3 3 3 0 0 0 0 0 0 3 3 3 3 3 3 3 0 13 16 16 16 16 19 23 19 16 16 13 10 13
3 3 3 0 3 6 6 6 3 3 0 0 0 0 0 0 0 0 0 0 0 0 0 0 0 3 3 3 0 0 0 0 10 16 16 16 19 19 16 16 13 10 10
3 3 3 0 0 3 6 3 0 0 0 0 0 0 0 0 0 0 0 0 0 0 0 0 0 0 0 0 0 0 0 0 0 0 13 16 16 19 10 6 10 10 6
3 6 0 0 0 3 3 3 0 0 0 0 0 0 0 0 0 0 0 0 0 0 0 0 0 0 0 0 0 0 0 0 0 0 0 6 13 13 10 10 6 6 6
0 3 3 0 0 3 3 3 3 0 0 0 0 0 0 0 0 0 0 0 0 0 0 0 0 0 0 0 0 0 0 0 0 0 0 0 0 0 3 3 6 6 6
0 0 3 3 3 3 3 3 0 0 0 0 0 0 0 0 0 0 0 0 0 0 0 0 0 0 0 0 0 0 0 0 0 0 0 0 0 0 0 0 0 0 0
0 0 3 3 0 0 0 0 0 0 0 0 0 0 0 0 0 0 0 0 0 0 0 0 0 0 0 0 0 0 0 0 0 0 0 0 0 0 0 0 0 0 0
0 0 0 3 3 0 0 0 0 0 0 0 0 0 0 0 0 0 0 0 0 0 0 0 0 0 0 0 0 0 0 0 0 0 0 0 0 0 0 0 0 0 0
0 0 0 3 3 0 0 0 0 0 0 0 0 0 0 0 0 0 0 0 0 0 0 0 0 0 0 0 0 0 0 0 0 0 0 0 0 0 0 0 0 0 0
0 0 0 3 3 3 0 0 0 0 0 0 3 3 0 0 0 0 0 0 0 0 0 0 0 0 0 0 0 0 0 0 0 0 0 0 0 0 0 0 0 0 0
0 0 0 0 3 3 3 3 3 3 0 3 3 3 3 3 0 0 0 0 0 0 0 0 0 0 0 0 0 0 0 0 0 0 0 0 0 0 0 0 0 0 0
0 0 0 0 3 3 3 3 3 3 3 3 3 6 6 3 3 0 0 0 0 0 0 0 0 0 0 0 0 0 0 0 0 0 0 0 0 0 0 0 0 0 0
0 0 0 0 3 3 3 3 3 3 3 6 3 3 6 0 0 0 0 0 0 0 0 0 0 0 0 0 0 0 0 0 0 0 0 0 0 0 0 0 0 0 0
0 0 0 0 3 3 3 0 3 3 3 3 3 3 3 0 0 0 0 0 0 0 0 0 0 0 0 0 0 0 0 0 0 0 0 0 0 0 0 0 0 0 0
0 0 0 0 3 3 0 0 0 3 3 3 3 3 3 0 0 0 0 0 0 0 0 0 0 0 0 0 0 0 0 0 0 0 0 0 0 0 0 0 0 0 0
0 0 0 0 3 3 0 0 0 3 3 3 3 3 3 3 0 0 0 0 0 0 0 0 0 0 0 0 0 0 0 0 0 0 0 0 0 0 0 0 0 0 0
0 0 0 0 3 3 0 0 0 3 3 3 3 3 3 0 0 0 0 0 0 0 0 0 0 0 0 0 0 0 0 0 0 0 0 0 0 0 0 0 0 0 0
0 0 0 3 3 3 0 0 0 3 3 3 3 0 0 0 0 0 0 0 0 0 0 0 0 0 0 0 0 0 0 0 0 0 0 0 0 0 0 0 0 0 0

GEFSMA_con_cape1000_228.txt.gz
Probability
42 39 45 48 45 45 48 45 39 35 39 29 19 13 16 16 19 19 23 26 32 29 26 29 35 32 32 39 45 42 39 39 39 42 39 42 45 42 45 35 39 45 42
39 45 42 45 35 42 42 48 35 39 39 35 23 19 19 19 19 19 19 23 29 29 23 26 26 32 35 35 39 35 39 39 39 48 42 42 42 35 35 32 39 42 35
42 42 35 42 39 35 42 42 42 42 35 32 23 19 23 26 16 26 16 23 19 26 26 26 29 26 29 23 26 35 32 32 35 39 32 32 32 32 29 29 29 32 29
35 35 29 29 32 29 29 39 45 39 35 32 29 23 23 26 23 26 19 19 19 13 19 26 26 23 29 29 23 26 26 26 26 32 35 35 26 29 26 19 16 19 13
32 32 32 32 35 29 26 26 32 32 39 35 29 29 26 26 23 13 10 10 10 13 16 23 23 23 19 23 19 19 19 32 29 29 23 19 23 19 23 16 13 13 13
32 32 32 35 35 29 29 35 32 42 39 39 19 23 23 19 19 16 10 10 10 10 10 10 16 16 16 19 19 16 16 23 23 23 23 23 19 16 16 13 13 10 10
32 39 32 35 35 32 26 26 29 29 29 29 19 19 19 19 13 16 13 13 10 10 13 13 13 10 6 6 10 16 16 16 19 19 26 23 16 13 10 13 13 6 6
35 29 32 35 32 32 26 29 32 29 26 19 10 10 10 6 13 6 10 13 13 10 6 6 10 6 6 10 6 13 13 16 16 16 19 23 16 16 13 13 13 6 3
29 26 29 29 23 26 26 29 32 29 23 26 19 16 13 3 6 10 3 6 13 13 6 6 6 10 6 10 6 10 13 13 13 13 19 19 19 23 13 13 13 13 10
26 19 19 19 23 19 19 19 23 23 26 16 19 16 10 6 6 3 3 3 6 6 6 3 3 3 6 10 10 10 6 6 6 10 13 16 23 19 19 16 16 13 10
13 13 13 16 16 16 16 16 19 23 19 23 13 10 10 10 6 6 3 3 3 3 3 3 3 3 3 6 10 10 3 0 0 0 6 10 16 16 19 16 13 16 10
13 13 10 16 16 16 13 16 16 19 19 19 19 19 10 6 6 3 3 6 3 3 3 3 3 3 3 3 3 3 3 0 0 0 0 0 3 16 16 16 16 16 13
13 13 13 16 16 16 13 16 16 16 19 19 19 16 13 10 6 6 3 3 3 3 3 3 3 3 3 3 3 0 0 0 0 0 0 0 0 3 6 13 13 16 16
10 13 13 16 16 13 13 19 16 16 16 16 16 16 19 13 10 13 10 6 6 6 6 6 3 3 3 3 0 0 0 0 0 0 0 0 0 0 0 0 0 0 6
6 10 13 13 13 13 13 16 16 16 16 13 16 13 19 16 16 13 10 13 6 3 6 6 6 6 3 6 0 3 6 0 0 0 0 0 0 0 0 0 0 0 0
6 6 13 13 13 13 10 13 16 16 16 10 13 13 13 16 16 19 16 13 10 3 3 3 6 3 6 0 0 6 10 0 0 0 0 0 0 0 0 0 0 0 0
6 6 10 13 10 6 13 13 13 10 10 10 10 13 13 13 16 16 13 13 10 10 6 6 3 6 10 13 6 6 6 6 6 0 0 0 0 0 0 0 0 0 0
6 6 6 10 10 13 13 13 10 10 6 6 3 3 6 6 10 10 13 13 10 10 10 10 6 6 16 16 13 10 6 0 0 0 0 0 0 0 0 0 0 0 0
10 6 6 6 10 10 10 6 3 3 3 3 3 3 3 6 10 10 6 10 13 6 13 6 6 23 13 16 13 13 3 13 3 0 0 0 0 0 0 0 0 0 0
6 6 6 6 3 3 3 3 3 3 3 3 3 3 6 3 3 3 3 6 6 6 6 6 10 13 19 16 13 10 13 16 6 0 0 0 0 0 0 0 0 0 0
6 3 0 0 0 0 3 3 6 3 3 3 3 3 3 3 3 3 3 6 6 10 6 3 3 10 10 16 16 16 6 6 6 3 6 3 0 3 0 0 0 0 0
3 3 3 0 0 0 0 3 3 3 3 3 3 3 3 3 3 0 3 3 3 6 6 6 10 13 10 13 13 3 3 0 3 3 3 0 3 6 6 3 0 0 0
3 3 3 6 0 0 0 0 0 3 3 6 3 3 3 3 3 3 3 0 0 0 3 6 10 10 10 10 10 6 6 0 0 0 0 0 0 0 0 0 0 0 0
6 10 6 3 3 0 0 0 0 3 3 6 6 6 3 3 3 3 6 6 6 3 3 3 6 3 3 6 6 0 0 0 0 0 0 0 0 0 0 0 0 0 0
13 6 3 3 3 3 0 0 0 3 6 3 3 3 3 3 3 3 3 6 6 3 0 0 0 0 0 0 0 0 0 0 0 0 0 0 0 0 0 0 0 0 0
6 3 3 3 3 6 0 0 0 3 3 3 3 3 3 3 3 0 6 6 3 3 3 0 0 0 0 0 0 0 0 0 0 0 0 0 0 0 0 3 3 0 0

GEFSMA_con_cape1000_234.txt.gz
Probability
58 58 55 45 45 42 48 48 42 42 39 35 32 26 19 19 19 23 19 39 42 45 42 39 39 39 39 39 42 45 39 35 45 42 42 39 48 48 52 42 45 45 45
48 55 55 45 45 42 45 45 42 42 39 39 35 26 23 23 26 29 26 29 42 42 42 39 39 39 39 39 39 39 39 39 35 35 35 32 39 35 35 39 35 32 39
48 48 48 45 42 45 42 39 35 42 39 39 35 29 29 29 32 35 26 19 23 35 45 39 39 45 35 35 35 35 39 39 35 35 35 29 29 32 26 29 29 26 29
42 45 45 45 42 45 42 39 39 39 39 35 35 35 32 35 32 32 26 23 23 16 26 39 39 42 39 32 35 32 35 35 35 35 32 29 23 23 26 19 16 23 26
45 42 39 39 35 35 39 39 35 42 39 39 32 29 32 32 26 26 23 19 16 19 23 26 32 42 39 35 29 29 29 29 32 35 29 26 23 23 13 16 16 19 16
32 35 39 35 35 35 35 39 39 35 35 32 23 23 26 23 23 16 13 10 13 16 13 13 23 23 32 35 32 23 23 23 26 26 26 26 23 13 13 16 16 10 10
29 29 29 35 35 32 32 39 35 35 32 29 23 23 19 16 16 19 23 16 16 13 13 13 13 6 13 23 29 26 23 23 23 26 26 23 16 13 10 13 13 10 6
29 26 29 26 29 29 29 26 29 29 23 23 16 19 19 16 19 10 16 13 6 10 10 10 10 13 10 10 10 19 23 23 23 23 23 19 19 16 16 13 13 10 10
29 23 23 19 29 29 29 26 32 29 23 23 19 16 13 10 10 16 16 10 6 13 13 13 10 6 10 10 10 6 19 23 19 16 23 19 19 23 16 16 13 16 13
29 26 19 23 26 26 26 26 26 26 23 23 19 19 16 13 6 10 10 6 6 6 6 3 6 3 6 6 6 6 6 6 13 13 13 16 16 16 13 19 16 13 16
26 23 19 16 19 19 26 23 23 23 23 19 19 19 16 13 10 10 3 6 6 3 6 10 6 3 6 6 6 6 6 3 3 6 13 13 13 16 13 13 13 16 13
26 19 16 19 19 19 19 23 16 23 23 19 19 19 13 13 10 6 6 6 3 3 6 6 10 10 10 6 3 3 3 3 0 0 0 6 6 10 10 16 16 16 13
19 19 19 16 19 19 16 19 13 16 19 19 19 13 10 10 13 10 10 3 6 10 10 10 10 13 3 3 6 3 3 3 0 0 0 0 0 6 6 6 10 16 16
13 13 13 13 16 16 13 13 19 16 16 19 13 10 10 10 13 6 10 3 6 3 3 3 6 6 3 3 0 0 3 0 0 0 0 0 0 0 0 0 3 0 6
10 10 10 6 6 10 10 13 13 13 13 10 6 10 10 6 6 6 6 6 3 3 3 3 3 6 10 3 0 3 3 0 0 0 0 0 0 0 0 0 0 0 0
10 10 6 6 6 6 3 6 6 10 3 3 3 10 10 10 6 6 6 6 6 3 3 3 3 3 0 0 0 0 0 0 0 0 0 0 0 0 0 0 0 0 0
13 6 6 3 3 3 3 3 6 3 3 3 6 3 10 6 6 3 3 6 3 3 3 3 3 6 3 6 3 3 6 3 3 0 0 0 0 0 0 0 0 0 0
10 6 10 6 3 3 6 10 3 3 3 3 3 3 3 6 6 6 6 3 3 3 3 3 3 3 6 3 3 3 3 3 3 0 0 0 0 0 0 0 0 0 0
6 10 13 13 3 3 3 3 0 6 6 3 3 3 3 6 6 6 6 3 3 3 3 3 3 3 3 6 6 6 6 6 6 0 0 0 0 0 0 0 0 0 0
13 13 10 10 10 0 0 0 0 3 6 3 3 3 3 3 6 6 6 3 3 3 3 3 6 6 3 3 3 3 3 6 3 0 0 0 0 0 0 0 0 0 0
10 10 10 10 6 3 0 0 0 0 3 3 3 3 3 3 3 3 3 3 3 3 3 3 3 6 6 3 3 3 3 3 3 3 0 3 0 0 0 0 0 0 0
10 13 13 10 6 3 0 0 0 0 6 6 3 3 3 3 3 3 3 3 3 3 3 3 3 3 3 3 3 3 3 3 3 3 3 0 3 3 3 0 0 0 0
16 16 13 13 6 3 0 0 0 0 0 3 6 3 3 3 3 3 3 0 0 0 3 3 3 3 3 3 3 3 3 3 3 3 0 0 0 0 3 0 0 0 0
16 16 16 16 10 3 0 0 0 0 0 0 0 6 3 6 3 3 3 3 3 3 3 0 3 3 3 3 3 3 3 3 3 0 0 0 0 0 0 0 0 0 0
23 19 19 19 10 3 0 0 0 0 0 0 3 3 3 3 3 3 3 3 3 3 3 3 3 3 3 3 0 3 3 3 3 0 0 0 0 0 0 0 0 0 0
26 19 16 16 10 10 0 0 0 0 0 0 0 3 3 3 3 3 3 3 3 3 3 3 0 0 0 0 0 0 3 3 0 0 0 0 0 0 0 0 0 0 0

GEFSMA_con_cape1000_240.txt.gz
Probability
23 26 26 19 23 13 13 13 16 16 10 10 10 10 6 3 3 3 3 45 52 48 48 39 39 42 39 45 42 39 45 45 45 42 45 42 42 39 39 39 39 39 35
13 19 16 16 16 13 13 16 13 13 6 6 10 10 6 3 3 3 0 13 39 42 45 45 39 39 39 39 45 42 42 45 45 42 39 35 35 32 35 35 35 29 32
10 10 13 10 10 16 19 16 16 10 10 3 6 6 3 3 3 6 0 0 16 26 39 42 45 48 35 42 42 42 42 45 42 42 39 32 32 32 32 32 35 29 29
10 10 10 10 10 10 13 16 6 10 6 3 3 0 0 3 3 3 0 0 3 10 13 35 35 35 35 35 35 35 39 39 35 32 35 32 26 23 13 23 32 29 26
16 13 10 10 10 6 6 13 6 6 3 3 3 3 0 3 3 3 0 3 3 0 6 13 26 32 35 32 29 32 35 32 35 29 29 23 23 23 16 13 16 13 13
16 6 6 6 6 6 6 6 10 3 6 3 3 3 0 0 3 0 0 0 0 0 0 3 10 16 29 29 32 29 29 32 32 23 23 19 23 23 13 13 10 13 10
10 6 13 6 6 6 6 6 6 6 10 6 3 3 0 0 0 0 0 0 0 0 0 0 3 0 10 23 29 29 26 26 29 29 23 26 26 13 10 6 6 6 3
10 13 10 6 6 6 6 6 6 3 0 3 3 0 0 0 0 0 0 0 0 0 0 0 0 0 0 3 10 23 29 29 35 26 23 26 23 13 10 6 6 6 3
13 10 10 3 3 3 6 3 3 3 3 3 3 0 0 0 0 0 0 0 0 0 0 0 0 0 0 0 0 16 26 26 32 26 26 19 13 13 13 10 10 10 6
13 10 6 3 3 0 0 3 3 3 3 3 0 0 0 0 0 0 0 0 0 0 0 0 0 0 0 0 0 0 10 13 26 23 29 13 13 10 10 10 10 10 6
10 10 6 6 0 0 0 0 3 3 3 3 0 0 0 0 0 0 0 0 0 0 0 0 0 0 0 3 0 0 3 6 6 13 16 13 13 10 10 10 10 10 10
6 6 6 6 3 0 0 0 3 3 3 0 0 0 0 0 0 0 0 0 0 0 0 0 0 0 0 3 3 0 3 3 3 3 6 6 10 10 10 10 10 10 10
3 3 3 3 3 3 0 0 0 3 0 0 0 0 0 0 0 0 0 0 0 0 0 0 0 0 3 0 0 0 0 0 0 0 0 0 6 6 10 10 10 10 10
3 3 3 3 3 0 0 0 0 0 0 0 0 0 0 0 0 0 0 0 0 0 0 0 0 0 0 0 0 0 0 0 0 0 0 0 0 0 3 6 6 6 6
3 3 3 3 3 0 0 0 0 0 0 0 0 0 0 0 0 0 0 0 0 0 0 0 0 0 0 0 0 0 0 0 0 0 0 0 0 0 0 0 0 0 0
3 0 0 3 3 0 0 0 0 0 0 0 0 0 0 0 0 0 0 0 0 0 0 0 0 0 0 0 0 0 0 0 0 0 0 0 0 0 0 0 0 0 0
0 0 3 3 3 0 0 0 0 0 0 0 0 0 0 0 0 0 0 0 0 0 0 0 0 0 0 0 0 0 0 0 0 0 0 0 0 0 0 0 0 0 0
0 0 3 3 3 0 0 0 0 0 0 0 0 0 0 0 0 0 0 0 0 0 0 0 0 0 0 0 0 0 0 0 0 0 0 0 0 0 0 0 0 0 0
0 3 3 3 0 0 0 0 0 0 0 0 0 0 0 0 0 0 0 0 0 0 0 0 0 0 0 0 0 0 0 0 0 0 0 0 0 0 0 0 0 0 0
3 3 3 0 0 0 0 0 0 0 0 0 0 0 0 0 0 0 0 0 0 0 0 0 0 0 0 0 0 0 0 0 0 0 0 0 0 0 0 0 0 0 0
0 0 0 0 0 0 0 0 0 0 0 0 0 0 0 0 0 0 0 0 0 0 0 0 0 0 0 0 0 0 0 0 0 0 0 0 0 0 0 0 0 0 0
0 0 0 0 0 0 0 0 0 0 0 0 0 0 0 0 0 0 0 0 0 0 0 0 0 0 0 0 0 0 0 0 0 0 0 0 0 0 0 0 0 0 0
0 0 0 0 0 0 0 0 0 0 0 0 0 0 0 0 0 0 0 0 0 0 0 0 0 0 0 0 0 0 0 0 0 0 0 0 0 0 0 0 0 0 0
0 0 0 0 0 0 0 0 0 0 0 0 0 0 0 0 0 0 0 0 0 0 0 0 3 3 3 3 0 0 0 0 0 0 0 0 0 0 0 0 0 0 0
0 0 0 0 0 0 0 0 0 0 0 0 0 0 0 0 0 0 0 0 0 0 0 0 0 0 0 0 0 0 0 0 0 0 0 0 0 0 0 0 0 0 0
0 0 0 0 0 0 0 0 0 0 0 0 0 0 0 0 0 0 0 0 0 0 0 0 0 0 0 0 0 0 0 0 0 0 0 0 0 0 0 0 0 0 0

GEFSMA_con_cape1000_246.txt.gz
Probability
26 23 16 19 19 16 16 19 19 23 23 16 16 10 10 6 3 6 6 16 35 52 39 35 42 39 35 39 42 42 42 42 42 35 42 42 39 42 39 42 39 39 39
19 16 13 10 13 13 10 16 16 23 16 13 13 10 6 6 6 6 6 3 19 32 32 35 32 29 26 35 35 39 39 45 42 35 35 35 32 42 39 32 35 32 32
13 6 6 6 10 10 10 10 6 16 10 3 3 3 6 6 6 6 6 6 3 10 26 26 26 29 26 26 35 35 35 39 45 39 35 35 39 35 26 23 26 32 32
10 3 6 6 10 10 6 6 6 6 6 3 3 3 0 3 6 6 6 6 3 3 13 19 26 26 26 23 23 32 35 42 42 42 42 39 35 32 26 26 23 23 26
6 3 6 6 6 6 6 6 6 0 0 3 3 3 3 3 0 0 3 3 3 0 10 10 19 26 26 26 23 23 23 32 32 32 35 39 32 26 16 19 19 16 16
0 0 0 3 6 6 6 6 3 0 0 0 3 6 3 3 0 0 3 3 3 3 3 6 10 13 26 29 26 23 23 26 29 29 35 35 32 26 16 16 16 16 16
0 0 3 0 6 6 3 6 3 3 0 0 3 3 3 0 0 0 0 3 3 3 3 3 6 6 10 19 23 26 19 26 23 23 26 29 35 26 23 13 13 13 10
3 0 0 3 3 0 0 0 0 0 0 0 3 3 3 0 0 0 0 3 3 3 3 3 3 3 3 6 10 13 19 26 26 26 23 26 26 26 13 13 10 10 10
0 0 6 3 0 0 0 0 0 0 0 0 0 3 0 0 0 0 0 3 3 0 0 3 3 0 3 6 10 6 16 19 23 26 29 26 23 16 16 10 6 10 10
3 6 3 3 0 0 0 0 0 0 0 3 0 0 0 0 0 0 0 0 3 3 0 0 3 3 0 3 3 3 6 6 16 23 26 26 19 19 10 10 10 6 6
0 0 3 0 0 0 0 0 0 0 0 3 0 0 0 0 0 0 0 0 0 3 0 0 0 3 3 3 0 3 3 3 3 3 16 19 19 16 16 10 10 10 10
0 0 0 0 0 0 0 0 0 0 0 0 0 0 0 0 0 0 0 0 0 0 0 0 0 0 0 0 0 0 0 0 0 3 3 6 13 13 16 16 10 10 10
0 0 0 0 0 0 0 0 0 0 0 0 0 0 0 0 0 0 0 0 0 0 0 0 0 0 0 0 3 0 0 0 0 0 0 0 3 3 10 10 10 10 10
0 0 0 0 0 0 0 0 0 0 0 0 0 0 0 0 0 0 0 0 0 0 0 0 0 0 0 3 3 0 3 0 0 0 0 0 0 3 3 3 3 6 6
0 0 0 0 0 0 0 0 0 0 0 0 0 0 0 0 0 0 0 0 0 0 0 0 3 3 0 0 0 0 0 0 0 0 0 0 0 0 0 3 3 3 3
0 0 0 0 0 0 0 0 0 0 0 0 0 0 0 0 0 0 0 0 0 0 0 0 0 0 0 0 0 0 0 0 0 0 0 0 0 0 0 0 0 0 0
0 0 0 0 0 0 0 0 0 0 0 0 0 0 0 0 0 0 0 0 0 0 0 0 0 0 0 0 0 0 0 0 0 0 0 0 0 0 0 0 0 0 0
0 0 0 0 0 0 0 0 0 0 0 0 0 0 0 0 0 0 0 0 0 0 0 0 3 3 0 0 0 0 0 0 0 0 0 0 0 0 0 0 0 0 0
0 0 0 0 0 0 0 0 0 0 0 0 0 0 0 0 0 0 0 0 0 0 0 0 0 0 0 0 0 0 0 0 0 0 0 0 0 0 0 0 0 0 0
0 0 0 0 0 0 0 0 0 0 0 0 0 0 0 0 0 0 0 0 0 0 0 0 0 0 0 0 0 0 3 3 0 0 0 0 0 0 0 0 0 0 0
0 0 0 0 0 0 0 0 0 0 0 0 0 0 0 0 0 0 0 0 0 0 0 0 0 0 0 0 3 3 3 3 3 0 0 0 0 0 0 0 0 0 0
0 0 0 0 0 0 0 0 0 0 0 0 0 0 0 0 0 0 0 0 0 0 0 0 0 0 0 0 3 0 3 3 3 0 3 3 0 0 0 0 0 0 0
0 0 0 0 0 0 0 0 0 0 0 0 0 0 0 0 0 0 0 0 0 0 0 0 3 3 3 0 0 0 3 3 3 3 0 3 0 0 0 0 0 0 0
0 0 0 0 0 0 0 0 0 0 0 0 0 0 0 0 0 0 0 0 0 0 0 0 0 3 0 0 0 3 3 3 0 0 0 3 3 0 0 0 0 0 0
0 0 0 0 0 0 0 0 0 0 0 0 0 0 0 0 0 0 0 0 0 0 0 0 0 0 0 0 0 3 3 3 3 3 0 0 0 0 0 0 0 0 0
0 0 0 0 0 0 0 0 0 0 0 0 0 0 0 0 0 0 0 0 0 0 0 0 0 0 0 0 0 0 0 3 3 3 0 0 0 0 0 0 0 0 0

GEFSMA_con_cape1000_252.txt.gz
Probability
35 39 42 42 39 29 29 39 39 35 39 35 35 23 23 26 29 26 39 42 35 26 26 23 26 26 32 35 35 39 42 45 42 39 35 35 32 32 32 32 29 29 29
35 32 35 35 35 29 32 39 35 32 39 39 35 29 26 23 26 32 26 26 26 32 26 23 23 26 29 32 32 35 39 35 39 35 32 35 29 29 32 29 29 29 29
35 35 32 35 32 32 35 45 39 42 39 32 32 32 32 29 23 23 23 23 23 26 26 26 26 29 32 29 29 32 32 32 39 32 32 32 29 35 32 29 29 29 29
29 32 32 23 29 29 29 42 42 42 32 32 32 32 35 29 26 26 23 19 23 23 23 26 29 29 32 26 26 26 32 32 29 35 32 32 26 29 26 29 23 23 23
26 23 29 32 32 32 32 29 32 29 29 32 26 29 29 26 29 26 23 23 19 23 23 19 26 26 26 29 26 23 29 29 26 26 29 32 29 26 19 19 19 19 23
29 23 23 23 26 29 29 29 29 29 23 29 16 23 26 29 23 23 16 19 19 16 19 16 16 13 26 26 26 26 23 29 29 26 26 23 26 23 19 19 19 19 16
26 29 23 29 32 29 29 23 23 23 13 19 19 19 19 23 23 23 19 19 13 19 19 19 16 16 16 16 16 26 26 26 29 29 29 26 29 23 19 19 19 16 13
23 13 26 19 26 29 26 23 26 19 13 16 16 10 6 10 13 13 19 16 13 16 13 13 16 16 16 16 13 19 23 26 26 26 29 29 32 23 19 16 19 16 13
23 19 19 23 26 23 26 26 26 19 13 10 10 6 6 6 6 6 13 13 16 16 13 13 13 16 13 16 19 13 23 19 23 23 26 26 26 26 26 19 16 10 13
16 13 13 19 26 26 29 23 26 13 16 10 6 6 6 10 6 6 13 10 10 13 10 3 3 10 13 16 16 13 10 6 10 19 19 23 23 26 23 23 13 10 6
16 6 19 23 26 29 29 29 23 16 13 10 10 6 10 10 10 6 0 3 6 10 13 13 13 13 13 13 16 10 6 3 3 6 10 13 16 23 26 23 16 13 6
23 10 13 16 16 19 23 16 16 10 16 13 10 10 10 6 10 6 3 6 6 3 10 13 13 13 10 10 6 3 3 0 0 3 3 3 10 13 16 13 16 13 10
10 13 10 19 16 16 10 6 10 10 13 13 13 10 6 10 3 3 6 6 6 6 10 10 13 13 3 13 10 3 3 0 0 0 3 3 3 3 6 10 13 16 13
6 10 13 13 13 6 3 6 6 6 13 13 6 10 6 6 3 3 3 6 0 3 10 6 6 0 3 10 3 0 3 0 0 0 0 0 3 3 3 3 6 6 6
3 13 10 13 13 6 6 6 6 6 6 10 10 3 10 6 6 3 3 3 3 0 0 3 3 3 3 3 3 3 6 0 0 0 0 0 0 0 3 3 3 3 3
10 13 13 6 3 3 6 6 6 6 6 6 6 6 6 6 6 3 3 3 3 3 0 3 6 3 3 3 3 10 6 0 0 0 0 0 0 0 0 0 0 0 0
16 19 10 6 6 6 6 10 6 6 6 3 3 3 3 0 3 3 3 3 0 3 6 3 0 3 3 3 3 3 6 6 0 0 0 0 0 0 0 0 0 0 0
13 10 10 6 10 6 6 6 10 10 3 3 3 3 3 3 3 0 3 3 6 10 10 6 6 6 3 3 3 6 3 3 3 0 0 0 0 0 0 0 0 0 0
10 3 6 10 6 6 6 10 10 6 6 6 3 3 6 0 3 0 0 0 6 3 13 10 6 6 3 3 3 3 3 10 3 0 0 0 0 0 0 0 0 0 0
6 3 6 3 6 10 10 10 10 6 6 6 6 6 0 3 0 0 0 6 6 6 13 13 6 6 3 3 3 3 3 6 3 3 0 0 0 0 0 0 0 0 0
6 6 6 6 10 10 10 10 6 6 6 3 3 3 3 0 0 0 0 6 6 3 3 3 3 6 3 3 3 6 3 3 3 3 3 3 3 3 0 0 0 0 0
6 6 6 6 10 3 0 0 0 3 3 3 6 6 3 3 0 0 0 0 0 6 6 6 3 6 3 3 3 3 0 0 0 3 3 3 3 6 3 3 0 0 0
13 10 6 10 6 0 0 0 0 0 0 6 10 6 3 3 0 3 0 0 0 0 3 10 0 3 3 6 6 3 3 0 3 3 3 6 10 6 3 3 0 0 0
10 13 10 10 10 3 0 0 0 0 3 10 13 13 10 10 6 6 10 6 6 3 0 3 10 3 3 6 10 6 6 6 10 10 10 10 3 3 3 3 0 0 0
13 10 10 10 6 3 0 0 0 3 13 13 13 6 6 6 3 0 0 3 10 10 0 0 0 3 3 3 3 6 6 6 10 10 10 10 6 6 6 6 0 0 0
6 6 10 10 10 13 0 0 0 3 3 6 6 3 0 0 0 0 0 3 6 3 3 0 0 0 3 3 0 3 6 6 10 6 6 6 10 10 6 6 3 0 0

GEFSMA_con_cape1000_258.txt.gz
Probability
39 39 39 45 39 48 52 52 42 45 39 45 45 35 32 32 32 29 35 45 48 45 42 42 39 39 39 39 35 35 35 32 32 35 26 26 26 26 29 32 29 32 26
35 42 39 42 39 42 48 52 48 42 42 39 42 32 29 32 35 39 35 35 39 42 39 35 35 39 35 35 39 39 39 35 35 39 35 29 29 29 26 29 26 23 26
39 42 45 42 45 42 39 48 39 32 35 35 35 29 32 32 32 35 35 32 26 35 42 42 42 39 42 29 35 35 39 35 35 35 35 29 29 26 26 29 29 26 19
42 48 45 42 42 42 42 42 39 32 26 32 29 29 32 35 29 23 26 26 23 19 29 32 39 39 39 32 29 32 29 35 32 35 32 26 23 23 19 16 19 19 16
35 39 45 42 39 39 42 35 35 29 29 32 32 26 26 26 26 23 26 26 23 19 13 19 29 29 32 32 32 32 29 32 29 32 35 32 26 23 23 16 16 13 16
29 35 35 32 35 32 39 39 39 42 32 29 13 10 26 19 23 26 23 16 13 10 10 3 16 19 29 29 32 26 26 29 32 29 29 29 26 23 16 16 16 13 13
29 32 26 32 32 29 39 29 32 32 26 23 19 16 10 16 23 26 19 16 10 10 10 3 6 10 16 23 23 26 23 26 26 32 29 29 26 19 16 13 10 10 13
26 19 29 29 32 35 35 35 35 23 19 16 10 10 6 3 10 6 13 10 10 10 6 0 3 3 3 3 13 19 23 23 23 26 29 26 26 23 16 13 10 6 10
26 26 26 26 32 32 32 42 42 32 19 16 13 10 10 3 3 10 13 10 13 13 10 6 6 3 6 3 3 16 19 23 23 23 26 19 19 19 19 16 13 6 3
23 23 19 26 29 29 32 29 35 26 19 16 13 13 10 10 6 6 6 6 6 10 10 6 3 10 10 6 3 3 10 13 13 16 19 13 19 16 19 19 16 16 13
32 19 19 19 26 23 26 29 26 26 23 19 10 13 6 13 10 3 3 3 0 3 13 13 10 6 6 10 10 3 0 3 10 13 13 10 13 13 13 16 16 16 13
29 19 19 23 23 23 26 19 19 19 19 19 16 10 10 6 3 3 0 0 0 6 6 13 13 13 6 10 10 3 0 0 0 6 10 13 10 10 10 10 10 13 16
19 26 19 19 16 16 23 23 16 13 10 13 13 10 10 10 6 6 3 0 0 6 3 13 13 10 6 6 3 3 0 0 0 0 3 6 6 10 10 10 13 10 6
23 16 19 19 23 16 10 13 10 6 10 13 3 10 10 6 6 6 6 0 0 0 6 6 13 13 10 3 3 0 3 0 0 0 0 0 0 3 3 6 6 6 6
16 19 16 13 16 16 13 13 0 6 10 6 6 10 6 6 6 6 6 6 0 0 0 6 6 10 13 3 0 3 3 0 0 0 0 0 0 0 0 3 3 3 3
23 16 23 16 13 19 16 13 13 6 10 10 10 6 6 3 6 6 6 6 6 0 0 0 3 3 3 6 0 3 3 0 0 0 0 0 0 0 0 0 0 0 0
19 16 13 19 10 6 10 10 6 10 6 6 6 3 6 6 6 6 3 3 3 3 0 3 0 3 10 10 0 3 3 0 0 0 0 0 0 0 0 0 0 0 0
19 13 10 16 6 6 6 6 10 6 3 6 3 3 3 3 10 10 3 3 3 3 0 0 0 3 6 6 6 6 3 3 3 0 0 0 0 0 0 0 0 0 0
23 16 10 3 3 3 3 6 6 3 3 3 3 3 3 6 10 10 10 6 0 0 0 0 0 6 6 6 6 3 3 3 3 0 0 0 0 0 0 0 0 0 0
23 19 13 6 3 3 3 6 6 3 3 3 3 6 6 6 10 13 6 6 0 0 0 0 0 3 6 6 6 3 3 3 3 0 0 0 0 0 0 0 0 0 0
10 19 13 13 10 6 6 6 6 3 6 6 6 13 3 0 0 0 0 0 0 0 0 3 0 0 0 6 3 3 3 3 3 3 3 0 0 0 0 0 0 0 0
19 23 13 13 10 3 0 3 6 6 6 10 3 6 6 3 0 0 0 0 0 0 0 0 0 0 0 3 3 3 3 3 3 3 3 3 3 3 3 0 0 0 0
19 23 23 23 19 6 0 0 0 3 6 6 6 10 3 3 0 6 3 0 0 0 0 0 0 0 0 3 3 3 3 3 3 3 3 3 3 3 3 3 0 0 0
26 32 32 32 29 6 0 0 0 0 6 10 6 10 13 13 0 0 0 0 0 0 0 0 0 0 0 0 3 3 3 3 3 3 3 3 3 3 0 0 0 0 0
26 32 29 26 23 10 0 0 0 3 10 10 3 3 3 3 0 0 0 3 3 3 0 0 0 0 0 3 3 3 3 3 3 3 3 3 3 3 3 0 0 0 0
26 26 26 26 23 19 3 0 0 0 6 16 6 6 0 0 0 0 0 0 3 3 0 0 0 0 0 0 0 3 3 3 3 3 3 3 3 3 3 0 0 0 0

GEFSMA_con_cape1000_264.txt.gz
Probability
13 10 13 13 13 13 10 10 6 6 3 6 10 6 10 10 10 6 13 32 45 48 45 42 35 35 39 35 35 39 29 29 32 32 29 26 26 29 32 29 32 26 32
6 6 3 3 3 6 6 6 3 6 3 0 3 3 10 10 10 10 6 16 42 48 35 42 42 39 42 39 39 35 29 29 32 29 35 29 26 23 29 32 26 29 23
3 0 0 0 0 3 6 3 3 3 3 3 0 0 0 3 10 6 6 6 10 32 35 39 42 45 39 35 32 29 29 32 29 29 29 23 26 26 26 29 23 26 19
10 6 0 0 3 6 0 3 0 0 0 0 0 0 3 3 0 0 0 3 3 6 19 35 39 39 39 39 32 35 29 32 32 29 29 26 23 23 19 19 19 16 16
10 6 3 0 3 3 3 0 0 0 0 0 0 0 0 0 0 3 0 0 0 0 3 13 32 29 32 32 32 29 26 35 32 29 29 32 23 16 16 10 13 13 13
10 3 0 0 3 3 3 3 3 0 0 0 0 0 0 0 0 0 0 0 0 0 0 3 10 13 19 23 29 29 29 23 26 26 16 29 23 13 13 10 13 13 10
6 6 10 6 3 6 6 6 6 0 0 0 0 0 0 0 0 0 0 0 0 0 0 0 3 6 10 16 26 29 26 19 23 19 16 26 26 10 6 6 10 10 6
3 3 6 3 0 0 3 3 3 0 0 0 0 0 0 0 0 0 0 0 0 0 0 0 0 0 0 3 10 23 26 19 10 10 13 16 23 10 13 6 6 10 6
3 3 3 3 3 0 0 0 3 0 0 0 0 0 0 0 0 0 0 0 0 0 0 0 0 0 0 3 3 10 19 16 10 13 10 10 10 10 6 3 10 10 6
3 3 3 3 3 0 0 0 0 0 0 0 0 0 0 0 0 0 0 0 0 0 0 0 0 0 0 0 3 3 6 10 10 13 13 13 13 10 10 6 3 3 10
3 3 3 0 0 0 0 0 0 0 0 0 0 0 0 0 0 0 0 0 0 0 0 0 0 0 0 0 0 3 3 3 3 6 13 16 10 10 10 10 3 3 3
3 3 3 0 0 0 0 0 0 0 0 0 0 0 0 0 0 0 0 0 0 0 0 0 0 0 0 0 0 0 3 0 0 3 3 10 13 13 10 10 6 6 0
6 6 6 0 0 0 0 0 0 0 0 0 0 0 0 0 0 0 0 0 0 0 0 0 0 0 0 0 0 0 0 0 0 0 0 0 6 10 10 10 10 10 10
6 6 6 6 3 0 0 0 0 0 0 0 0 0 0 0 0 0 0 0 0 0 0 0 0 0 0 0 0 0 0 0 0 0 0 0 0 0 6 6 3 6 3
3 3 6 6 3 0 0 0 0 0 0 0 0 0 0 0 0 0 0 0 0 0 0 0 0 0 0 0 0 0 0 0 0 0 0 0 0 0 0 0 0 0 0
0 3 0 0 3 0 0 0 0 0 0 0 0 0 0 0 0 0 0 0 0 0 0 0 0 0 0 0 0 0 0 0 0 0 0 0 0 0 0 0 0 0 0
0 0 0 0 0 0 0 0 0 0 0 0 0 0 0 0 0 0 0 0 0 0 0 0 0 0 0 0 0 0 0 0 0 0 0 0 0 0 0 0 0 0 0
0 0 0 0 0 0 0 0 0 0 0 0 0 0 0 0 0 0 0 0 0 0 0 0 0 0 0 0 0 0 0 0 0 0 0 0 0 0 0 0 0 0 0
0 0 0 0 0 0 0 0 0 0 0 0 0 0 0 0 0 0 0 0 0 0 0 0 0 0 0 0 0 0 0 0 0 0 0 0 0 0 0 0 0 0 0
0 0 0 0 0 0 0 0 0 0 0 0 0 0 0 0 0 0 0 0 0 0 0 0 0 0 0 0 0 0 0 0 0 0 0 0 0 0 0 0 0 0 0
0 0 0 0 0 0 0 0 0 0 0 0 0 0 0 0 0 0 0 0 0 0 0 0 0 0 0 0 0 0 0 0 0 0 0 0 0 0 0 0 0 0 0
0 0 0 0 0 0 0 0 0 0 0 0 0 0 0 0 0 0 0 0 0 0 0 0 0 0 0 0 0 0 0 0 0 0 0 0 0 0 0 0 0 0 0
0 0 0 0 0 0 0 0 0 0 0 0 0 0 0 0 0 0 0 0 0 0 0 0 0 0 0 0 0 0 0 0 0 0 0 0 0 0 0 0 0 0 0
0 0 0 0 0 0 0 0 0 0 0 0 0 0 0 0 0 0 0 0 0 0 0 0 0 0 0 0 0 0 0 0 0 0 0 0 0 0 0 0 0 0 0
0 0 0 0 0 0 0 0 0 0 0 0 0 0 0 0 0 0 0 0 0 0 0 0 0 0 0 0 0 0 0 0 0 0 0 0 0 0 0 0 0 0 0
0 0 0 0 0 0 0 0 0 0 0 0 0 0 0 0 0 0 0 0 0 0 0 0 0 0 0 0 0 0 0 0 0 0 0 0 0 0 0 0 0 0 0